User: anonymous   Login
Location: Columbia
(38.9520°N, 92.3340°W)
Time: 07:53:50
(UTC-06:00)
Language:

Cosmos 2219 Rocket - Orbit

View from above orbital plane
View from above orbital plane
View from above satellite
View from above satellite

Ground track
Ground track

The orbit data is extracted from the following two-line orbital elements,

1 22220U 92076B   14328.16336262  .00000232  00000-0  14061-3 0  4626
2 22220 071.0012 229.4094 0015106 261.8446 260.9902 14.16334901138232
Epoch (UTC): 24 November 2014 03:55:14
Eccentricity: 0.0015106
inclination: 71.0012°
perigee height: 827 km
apogee height: 848 km
right ascension of ascending node: 229.4094°
argument of perigee: 261.8446°
revolutions per day: 14.16334901
mean anomaly at epoch: 260.9902°
orbit number at epoch: 13823

The dashed part of the orbit path shows where the satellite is in the earth's shadow,  

DLR